Andalusia, AL

7:49 PM CDT on August 27, 2016 (GMT -0500)
Andalusia

Weather History for K79J - December, 2012

Change the Weather History Date:

Saturday, December 1, 2012

  Actual Average (KCEW) Record (KCEW)
Temperature  
Mean Temperature 62 °F -  
Max Temperature 75 °F 67 °F 81 °F (1982)
Min Temperature 48 °F 41 °F 21 °F (1976)
Degree Days  
Heating Degree Days 4    
Growing Degree Days 12 (Base 50)    
Moisture  
Dew Point 48 °F    
Average Humidity 71    
Maximum Humidity 89    
Minimum Humidity 36    
Precipitation  
Precipitation 0.01 in - - ()
Sea Level Pressure  
Sea Level Pressure 30.26 in    
Wind  
Wind Speed 2 mph (SSE)    
Max Wind Speed 8 mph    
Max Gust Speed -    
Visibility 8 miles    
Events      
Averages and records for this station are not official NWS values.
T = Trace of Precipitation, MM = Missing Value Source: NWS Daily Summary

Daily Weather History Graph

Daily Weather History Graph

Search for Another Location

Airport or City:

Trip Planner

Search our weather history database for the weather conditions in past years. The results will help you decide how hot, cold, wet, or windy it might be!

Date:

Astronomy

Dec. 01, 2012 Rise Set
Actual Time 6:27 AM CST 4:42 PM CST
Civil Twilight 6:00 AM CST 5:08 PM CST
Nautical Twilight 5:30 AM CST 5:38 PM CST
Astronomical Twilight 5:01 AM CST 6:08 PM CST
Moon 7:28 PM CST (12/1) 8:41 AM CST (12/1)
Length of Visible Light 11h 08m
Length of Day
10h 15m
Waning Gibbous, 91% of the Moon is Illuminated
Dec 1
Waning Gibbous
Dec 6
Last Quarter
Dec 13
New
Dec 19
First Quarter
Dec 28
Full

Hourly Weather History & Observations

Time (CST) Temp. Dew Point Humidity Pressure Visibility Wind Dir Wind Speed Gust Speed Precip Events Conditions
12:07 AM 51.8 °F 46.4 °F 82% 30.25 in 3.0 mi ESE 3.5 mph - N/A   Clear
12:56 AM 50.0 °F 46.9 °F 89% 30.23 in 2.5 mi Calm Calm - N/A   Clear
1:23 AM 50.0 °F 44.6 °F 82% 30.25 in 6.0 mi Calm Calm - N/A   Haze
1:56 AM 48.9 °F 44.1 °F 83% 30.24 in 8.0 mi Calm Calm - N/A   Clear
2:56 AM 48.0 °F 43.0 °F 83% 30.24 in 6.0 mi Calm Calm - N/A   Haze
3:13 AM 48.2 °F 44.6 °F 87% 30.24 in 2.5 mi Calm Calm - N/A   Haze
3:22 AM 48.2 °F 44.6 °F 87% 30.24 in 3.0 mi Calm Calm - N/A   Mostly Cloudy
3:56 AM 48.9 °F 44.1 °F 83% 30.24 in 9.0 mi Calm Calm - 0.01 in   Mostly Cloudy
4:56 AM 52.0 °F 46.9 °F 83% 30.25 in 7.0 mi Calm Calm - N/A   Mostly Cloudy
5:56 AM 51.1 °F 46.9 °F 86% 30.27 in 5.0 mi Calm Calm - N/A   Scattered Clouds
6:56 AM 51.1 °F 46.9 °F 86% 30.29 in 5.0 mi Calm Calm - N/A   Partly Cloudy
7:56 AM 55.9 °F 51.1 °F 84% 30.29 in 6.0 mi SE 4.6 mph - N/A   Haze
8:56 AM 63.0 °F 54.0 °F 72% 30.30 in 10.0 mi SSE 5.8 mph - N/A   Clear
9:56 AM 70.0 °F 53.1 °F 55% 30.30 in 10.0 mi Variable 5.8 mph - N/A   Clear
10:56 AM 73.9 °F 53.1 °F 48% 30.29 in 10.0 mi SSE 5.8 mph - N/A   Partly Cloudy
11:56 AM 73.9 °F 51.1 °F 45% 30.26 in 10.0 mi Variable 6.9 mph - N/A   Mostly Cloudy
12:56 PM 75.0 °F 50.0 °F 41% 30.25 in 10.0 mi SE 8.1 mph - N/A   Partly Cloudy
1:56 PM 75.9 °F 48.0 °F 37% 30.23 in 10.0 mi Variable 3.5 mph - N/A   Partly Cloudy
2:56 PM 75.9 °F 46.9 °F 36% 30.23 in 10.0 mi SSW 3.5 mph - N/A   Partly Cloudy
3:56 PM 73.0 °F 48.0 °F 41% 30.23 in 10.0 mi SSE 4.6 mph - N/A   Clear
4:56 PM 66.0 °F 50.0 °F 56% 30.24 in 10.0 mi Calm Calm - N/A   Clear
5:56 PM 61.0 °F 50.0 °F 67% 30.25 in 10.0 mi Calm Calm - N/A   Clear
6:56 PM 57.9 °F 48.9 °F 72% 30.26 in 10.0 mi Calm Calm - N/A   Clear
7:56 PM 55.0 °F 48.9 °F 80% 30.26 in 10.0 mi Calm Calm - N/A   Clear
8:56 PM 55.0 °F 48.0 °F 77% 30.26 in 10.0 mi West 3.5 mph - N/A   Clear
9:56 PM 52.0 °F 46.9 °F 83% 30.26 in 10.0 mi Calm Calm - N/A   Clear
10:56 PM 50.0 °F 45.0 °F 83% 30.27 in 10.0 mi Calm Calm - N/A   Clear
11:56 PM 50.0 °F 45.0 °F 83% 30.27 in 7.0 mi Calm Calm - N/A   Clear